This demonstration page uses our WeatherBlox Daily Observations layout. Learn more.

Left ArrowRight Arrow

Hourly Observations for June 5, 2019

Temp ( °F °C ) Dew Point ( °F °C ) Humidity (%) Winds ( mph kmh ) Pressure ( in mb ) Visibility ( mi km ) Precip ( " mm )
12:07 am 00:07 Mostly Clear with Nearby Thunderstorms 75 24 59 15 57 57 NW 15 24 29.76 1008 10 16 0.00 0.00
12:56 am 00:56 Clear 71 21.7 58 14.4 63 63 NNE 12 19 29.79 1009 10 16 0.00 0.00
1:56 am 01:56 Clear 69 20.6 57 13.9 66 66 N 9 15 29.78 1008 10 16 0.00 0.00
2:56 am 02:56 Clear 67 19.4 57 13.9 71 71 NW 8 13 29.78 1009 10 16 0.00 0.00
3:56 am 03:56 Clear 67 19.4 56 13.3 68 68 NW 9 15 29.80 1009 10 16 0.00 0.00
4:56 am 04:56 Mostly Clear 66 18.9 56 13.3 70 70 NW 7 11 29.81 1009 10 16 0.00 0.00
5:56 am 05:56 Clear 65 18.3 56 13.3 73 73 NW 9 15 29.81 1009 10 16 0.00 0.00
6:56 am 06:56 Sunny 64 17.8 56 13.3 75 75 NW 10 17 29.83 1010 10 16 0.00 0.00
7:56 am 07:56 Sunny 68 20 57 13.9 68 68 NNW 14 22 29.83 1010 10 16 0.00 0.00
8:56 am 08:56 Sunny 72 22.2 59 15 64 64 NNW 12 19 29.85 1011 10 16 0.00 0.00
9:56 am 09:56 Mostly Sunny 76 24.4 61 16.1 60 60 NNW 12 19 29.85 1011 10 16 0.00 0.00
10:56 am 10:56 Sunny 80 26.7 63 17.2 56 56 NNW 10 17 29.84 1011 10 16 0.00 0.00
11:56 am 11:56 Sunny 83 28.3 62 16.7 49 49 N 18 30 29.84 1010 10 16 0.00 0.00
12:56 pm 12:56 Mostly Sunny 84 28.9 60 15.6 44 44 NNE 16 26 29.84 1011 10 16 0.00 0.00
1:56 pm 13:56 Mostly Cloudy 81 27.2 58 14.4 45 45 N 9 15 29.85 1011 10 16 0.00 0.00
2:56 pm 14:56 Mostly Cloudy 85 29.4 59 15 42 42 NE 13 20 29.84 1010 10 16 0.00 0.00
3:56 pm 15:56 Sunny 85 29.4 58 14.4 40 40 NE 10 17 29.83 1010 10 16 0.00 0.00
4:56 pm 16:56 Sunny 85 29.4 59 15 42 42 NNE 9 15 29.82 1010 10 16 0.00 0.00
5:56 pm 17:56 Sunny 84 28.9 58 14.4 41 41 N 12 19 29.82 1010 10 16 0.00 0.00
6:56 pm 18:56 Partly Cloudy 84 28.9 59 15 43 43 NNE 12 19 29.82 1010 10 16 0.00 0.00
7:56 pm 19:56 Partly Cloudy 81 27.2 61 16.1 51 51 NE 12 19 29.81 1010 10 16 0.00 0.00
8:56 pm 20:56 Sunny 76 24.4 62 16.7 62 62 N 10 17 29.82 1010 10 16 0.00 0.00
9:56 pm 21:56 Clear 74 23.3 60 15.6 62 62 N 14 22 29.83 1010 10 16 0.00 0.00
10:56 pm 22:56 Partly Cloudy 72 22.2 60 15.6 66 66 NNE 12 19 29.86 1011 10 16 0.00 0.00
11:56 pm 23:56 Clear 70 21.1 60 15.6 71 71 N 10 17 29.85 1011 10 16 0.00 0.00

Powered by AerisWeather